2022/08/01 23:33:17+0000,-34.52,-48.19,-32.16,-49.79,-55.90,-58.96
2022/08/01 23:34:09+0000,-36.97,-48.61,-32.33,-49.77,-56.22,-58.58
2022/08/01 23:35:01+0000,-35.64,-47.52,-32.72,-50.49,-55.73,-58.65
2022/08/01 23:35:53+0000,-35.92,-47.45,-31.78,-49.25,-55.65,-58.73
2022/08/01 23:36:45+0000,-36.19,-47.94,-31.71,-49.58,-55.90,-59.05
2022/08/01 23:37:37+0000,-36.16,-48.39,-32.26,-49.15,-55.81,-58.87
2022/08/01 23:38:29+0000,-36.38,-47.02,-32.09,-49.06,-55.69,-58.42
2022/08/01 23:39:21+0000,-36.02,-47.52,-32.08,-49.59,-55.59,-59.29
2022/08/01 23:40:13+0000,-37.22,-48.66,-32.60,-49.46,-56.01,-58.75
2022/08/01 23:41:12+0000,-36.99,-48.04,-32.03,-48.42,-55.61,-58.41
2022/08/01 23:42:04+0000,-35.75,-49.29,-31.69,-50.43,-55.88,-58.73
2022/08/01 23:42:56+0000,-35.38,-47.57,-32.50,-50.13,-55.06,-58.66
2022/08/01 23:43:48+0000,-36.60,-46.66,-32.13,-49.13,-55.86,-58.48
2022/08/01 23:44:40+0000,-36.19,-47.63,-31.97,-48.96,-55.55,-58.92
2022/08/01 23:45:33+0000,-37.09,-47.16,-32.13,-50.75,-55.43,-59.26
2022/08/01 23:46:25+0000,-36.71,-45.59,-32.04,-49.07,-55.74,-58.86
2022/08/01 23:47:17+0000,-36.75,-45.77,-31.78,-49.09,-55.89,-59.09
2022/08/01 23:48:09+0000,-36.53,-46.04,-33.20,-49.22,-55.38,-58.71
2022/08/01 23:49:01+0000,-36.24,-45.41,-31.83,-49.06,-55.37,-58.93
2022/08/01 23:49:53+0000,-36.81,-47.60,-32.29,-49.67,-55.41,-59.66
2022/08/01 23:50:45+0000,-35.49,-47.12,-31.86,-48.57,-56.15,-59.03
2022/08/01 23:51:44+0000,-37.00,-49.04,-32.39,-49.29,-55.78,-59.09
2022/08/01 23:52:36+0000,-36.12,-48.66,-31.92,-50.44,-54.93,-58.86
2022/08/01 23:53:28+0000,-35.90,-48.01,-32.25,-49.18,-56.53,-58.71
2022/08/01 23:54:20+0000,-36.13,-48.59,-32.26,-50.40,-55.69,-58.22
2022/08/01 23:55:12+0000,-35.96,-48.07,-32.56,-49.30,-55.96,-58.40
2022/08/01 23:56:05+0000,-36.51,-48.99,-32.26,-50.49,-56.41,-58.64
2022/08/01 23:56:57+0000,-36.69,-48.68,-31.83,-49.46,-56.81,-58.47
2022/08/01 23:57:49+0000,-36.29,-48.76,-31.97,-48.88,-56.68,-58.74
2022/08/01 23:58:41+0000,-36.43,-48.52,-32.28,-49.47,-55.87,-58.46
2022/08/01 23:59:33+0000,-35.86,-48.49,-32.22,-49.25,-55.34,-59.26
2022/08/02 00:00:25+0000,-36.42,-47.73,-32.73,-48.87,-55.51,-58.55
2022/08/02 00:01:28+0000,-35.94,-48.79,-32.05,-49.18,-55.20,-58.13
2022/08/02 00:02:20+0000,-36.53,-48.94,-32.33,-49.54,-54.57,-58.99
2022/08/02 00:03:12+0000,-36.33,-48.81,-32.14,-47.83,-55.49,-59.09
2022/08/02 00:04:04+0000,-35.67,-48.98,-31.76,-50.57,-54.45,-58.85
2022/08/02 00:04:56+0000,-36.02,-49.29,-32.24,-49.25,-55.75,-58.66
2022/08/02 00:05:48+0000,-35.99,-48.64,-32.12,-50.34,-55.58,-58.89
2022/08/02 00:06:40+0000,-36.07,-48.35,-32.39,-49.87,-55.78,-58.64
2022/08/02 00:07:32+0000,-36.82,-49.27,-32.10,-49.77,-55.23,-58.88
2022/08/02 00:08:24+0000,-36.15,-48.42,-31.85,-49.48,-55.15,-58.32
2022/08/02 00:09:16+0000,-36.18,-49.39,-32.37,-48.98,-55.76,-58.75
2022/08/02 00:10:08+0000,-37.10,-49.13,-32.20,-49.42,-55.29,-58.77
2022/08/02 00:11:08+0000,-36.61,-48.91,-32.11,-49.91,-55.33,-58.52
2022/08/02 00:12:00+0000,-36.19,-49.27,-31.76,-49.26,-55.03,-58.11
2022/08/02 00:12:52+0000,-36.70,-48.70,-31.98,-49.74,-55.54,-58.80
2022/08/02 00:13:44+0000,-36.34,-48.86,-31.82,-48.50,-55.36,-58.12
2022/08/02 00:14:36+0000,-36.56,-48.50,-31.65,-49.59,-55.61,-59.51
2022/08/02 00:15:28+0000,-36.13,-48.54,-32.05,-48.77,-55.51,-59.03
2022/08/02 00:16:20+0000,-36.09,-48.19,-31.76,-49.35,-55.00,-58.23
2022/08/02 00:17:12+0000,-36.02,-48.78,-32.63,-49.01,-54.79,-58.67
2022/08/02 00:18:04+0000,-35.79,-48.45,-31.87,-50.20,-55.13,-58.42
2022/08/02 00:18:56+0000,-35.98,-47.44,-32.11,-46.68,-55.09,-58.56
2022/08/02 00:19:48+0000,-36.00,-48.04,-31.99,-50.61,-55.07,-58.51
2022/08/02 00:20:40+0000,-36.93,-49.41,-31.90,-49.84,-55.04,-58.61
2022/08/02 00:21:40+0000,-36.42,-49.06,-32.28,-49.70,-55.32,-58.87
2022/08/02 00:22:32+0000,-36.47,-48.51,-32.10,-47.23,-55.33,-58.91
2022/08/02 00:23:24+0000,-35.28,-46.29,-32.25,-46.49,-55.53,-58.75
2022/08/02 00:24:16+0000,-36.64,-48.85,-32.17,-48.68,-55.97,-59.09
2022/08/02 00:25:08+0000,-35.56,-46.84,-31.97,-49.77,-55.37,-58.37
2022/08/02 00:26:00+0000,-35.85,-46.82,-32.73,-50.47,-54.84,-58.51
2022/08/02 00:26:52+0000,-35.78,-47.51,-31.94,-49.12,-55.28,-59.12
2022/08/02 00:27:44+0000,-35.84,-47.54,-31.95,-49.11,-54.95,-58.26
2022/08/02 00:28:36+0000,-36.33,-47.13,-32.39,-49.34,-55.62,-59.22
2022/08/02 00:29:28+0000,-37.19,-46.49,-31.96,-49.55,-55.39,-58.63
2022/08/02 00:30:20+0000,-36.11,-46.71,-31.95,-46.68,-55.28,-58.30
2022/08/02 00:31:19+0000,-37.00,-46.39,-32.65,-50.88,-55.33,-59.05
2022/08/02 00:32:11+0000,-36.45,-45.60,-32.20,-50.20,-55.54,-58.58
2022/08/02 00:33:03+0000,-35.57,-46.24,-31.78,-50.64,-55.33,-58.98
2022/08/02 00:33:56+0000,-35.67,-45.93,-32.01,-46.48,-55.29,-58.46
2022/08/02 00:34:48+0000,-35.12,-48.11,-31.18,-50.43,-55.62,-58.92
2022/08/02 00:35:40+0000,-36.45,-47.29,-31.88,-49.73,-55.49,-58.48
2022/08/02 00:36:32+0000,-35.45,-46.96,-32.01,-46.27,-55.07,-58.45
2022/08/02 00:37:24+0000,-36.74,-47.03,-32.22,-46.56,-55.29,-58.99
2022/08/02 00:38:16+0000,-36.15,-46.30,-32.07,-49.60,-55.38,-57.72
2022/08/02 00:39:08+0000,-36.68,-46.72,-32.14,-48.86,-55.10,-58.70
2022/08/02 00:40:00+0000,-37.01,-47.91,-31.79,-48.44,-54.80,-58.63
2022/08/02 00:40:59+0000,-35.71,-47.24,-32.34,-47.52,-55.87,-58.89
2022/08/02 00:41:51+0000,-37.21,-47.69,-31.95,-48.71,-55.42,-58.49
2022/08/02 00:42:43+0000,-36.51,-47.73,-32.68,-46.63,-54.49,-58.37
2022/08/02 00:43:35+0000,-37.01,-47.49,-32.18,-50.39,-55.39,-58.46
2022/08/02 00:44:27+0000,-37.05,-47.38,-31.88,-49.13,-55.44,-58.64
2022/08/02 00:45:19+0000,-36.85,-47.58,-32.29,-50.37,-55.13,-58.27
2022/08/02 00:46:11+0000,-36.83,-46.86,-32.30,-46.73,-55.87,-58.48
2022/08/02 00:47:03+0000,-36.10,-47.60,-32.07,-50.52,-55.45,-58.69
2022/08/02 00:47:55+0000,-36.68,-46.53,-31.93,-50.49,-55.27,-59.17
2022/08/02 00:48:47+0000,-36.61,-47.84,-31.95,-45.76,-55.61,-58.68
2022/08/02 00:49:39+0000,-36.07,-48.25,-31.84,-46.86,-55.68,-58.61
2022/08/02 00:50:32+0000,-36.20,-46.55,-32.08,-50.24,-55.31,-57.85
2022/08/02 00:51:34+0000,-36.07,-47.08,-31.85,-51.60,-56.04,-59.04
2022/08/02 00:52:26+0000,-37.35,-47.88,-32.04,-49.74,-54.51,-58.87
2022/08/02 00:53:18+0000,-36.14,-47.80,-31.77,-47.20,-55.26,-58.66
2022/08/02 00:54:10+0000,-36.43,-47.77,-32.18,-49.83,-55.02,-58.75
2022/08/02 00:55:02+0000,-36.12,-47.45,-32.23,-46.75,-55.19,-58.36
2022/08/02 00:55:54+0000,-35.98,-47.72,-32.26,-47.10,-55.23,-59.08
2022/08/02 00:56:46+0000,-36.30,-47.58,-32.13,-49.04,-55.71,-58.60
2022/08/02 00:57:38+0000,-37.16,-47.26,-31.81,-48.98,-55.22,-58.48
2022/08/02 00:58:30+0000,-36.80,-47.26,-32.02,-47.42,-55.56,-58.39
2022/08/02 00:59:22+0000,-36.29,-47.46,-32.18,-48.99,-55.65,-58.96
2022/08/02 01:00:14+0000,-37.23,-48.06,-31.65,-48.97,-55.59,-58.36
2022/08/02 01:01:14+0000,-36.98,-47.14,-31.81,-49.06,-55.52,-59.00
2022/08/02 01:02:06+0000,-31.64,-47.43,-32.31,-50.10,-55.76,-58.26
2022/08/02 01:02:58+0000,-36.74,-47.36,-31.90,-46.46,-55.71,-58.47
2022/08/02 01:03:50+0000,-36.76,-46.88,-32.39,-49.62,-55.47,-57.96
2022/08/02 01:04:42+0000,-36.11,-47.69,-32.46,-49.96,-55.10,-58.48
2022/08/02 01:05:34+0000,-36.96,-47.45,-31.73,-49.61,-55.17,-58.81
2022/08/02 01:06:26+0000,-36.27,-47.65,-32.92,-48.83,-53.99,-58.27
2022/08/02 01:07:18+0000,-36.12,-48.98,-31.29,-50.73,-55.49,-58.01
2022/08/02 01:08:10+0000,-36.58,-47.02,-32.48,-48.71,-55.11,-58.27
2022/08/02 01:09:02+0000,-36.80,-46.92,-32.47,-49.52,-55.31,-58.81
2022/08/02 01:09:54+0000,-35.60,-46.99,-32.19,-46.91,-55.15,-58.80
2022/08/02 01:10:46+0000,-36.03,-48.00,-32.11,-48.99,-55.65,-59.16
2022/08/02 01:11:46+0000,-37.51,-46.96,-31.63,-49.65,-55.77,-58.93
2022/08/02 01:12:38+0000,-36.95,-46.85,-31.78,-49.32,-55.61,-58.98
2022/08/02 01:13:30+0000,-37.32,-46.70,-31.72,-46.77,-55.39,-58.23
2022/08/02 01:14:22+0000,-36.54,-48.28,-31.86,-47.05,-55.82,-58.77
2022/08/02 01:15:14+0000,-36.95,-46.92,-32.23,-48.91,-55.52,-58.53
2022/08/02 01:16:06+0000,-36.73,-47.40,-32.34,-49.03,-55.20,-58.58
2022/08/02 01:16:58+0000,-36.46,-47.55,-32.50,-46.64,-55.95,-58.76
2022/08/02 01:17:50+0000,-35.88,-47.41,-32.26,-46.54,-55.45,-58.62
2022/08/02 01:18:42+0000,-36.81,-48.33,-32.16,-47.98,-55.77,-58.04
2022/08/02 01:19:34+0000,-36.69,-48.32,-32.22,-51.12,-55.39,-58.14
2022/08/02 01:20:26+0000,-37.04,-47.82,-32.14,-49.39,-55.83,-59.13
2022/08/02 01:21:26+0000,-37.52,-46.65,-31.64,-47.46,-55.38,-58.66
2022/08/02 01:22:18+0000,-36.98,-47.71,-32.15,-50.32,-55.87,-57.99
2022/08/02 01:23:10+0000,-34.89,-46.63,-31.78,-49.36,-55.86,-58.75
2022/08/02 01:24:02+0000,-37.42,-48.53,-32.16,-49.30,-55.52,-58.74
2022/08/02 01:24:54+0000,-37.41,-46.39,-31.98,-49.29,-55.52,-58.81
2022/08/02 01:25:46+0000,-36.52,-48.28,-31.45,-46.71,-55.81,-58.69
2022/08/02 01:26:38+0000,-37.44,-48.02,-32.16,-46.90,-55.67,-59.07
2022/08/02 01:27:30+0000,-36.18,-48.17,-31.94,-50.07,-55.34,-58.62
2022/08/02 01:28:22+0000,-36.85,-48.48,-31.42,-48.58,-55.91,-58.72
2022/08/02 01:29:14+0000,-37.02,-47.63,-31.78,-47.19,-55.55,-58.79
2022/08/02 01:30:06+0000,-37.40,-47.85,-32.20,-46.87,-56.10,-58.37
2022/08/02 01:31:05+0000,-37.54,-47.73,-32.44,-50.73,-55.66,-58.57
2022/08/02 01:31:57+0000,-36.86,-47.37,-32.13,-49.66,-55.91,-58.31
2022/08/02 01:32:49+0000,-36.96,-47.66,-31.83,-50.34,-55.41,-58.88
2022/08/02 01:33:41+0000,-36.95,-46.45,-32.12,-47.44,-55.89,-58.82
2022/08/02 01:34:33+0000,-37.77,-47.35,-31.39,-50.45,-55.98,-58.38
2022/08/02 01:35:25+0000,-37.11,-46.88,-31.80,-49.65,-55.46,-58.27
2022/08/02 01:36:18+0000,-37.60,-47.77,-32.52,-46.92,-55.84,-59.28
2022/08/02 01:37:10+0000,-37.85,-47.70,-31.95,-46.74,-55.72,-58.33
2022/08/02 01:38:02+0000,-37.32,-47.36,-32.02,-49.00,-55.62,-58.56
2022/08/02 01:38:54+0000,-36.77,-47.37,-31.87,-50.35,-56.06,-59.45
2022/08/02 01:39:46+0000,-36.96,-47.03,-32.13,-49.83,-56.13,-58.88
2022/08/02 01:40:38+0000,-37.79,-47.80,-31.84,-47.77,-55.93,-58.88
2022/08/02 01:41:37+0000,-36.88,-47.34,-31.69,-50.31,-55.33,-58.69
2022/08/02 01:42:29+0000,-36.30,-47.77,-32.21,-46.65,-56.18,-58.46
2022/08/02 01:43:21+0000,-37.16,-47.41,-32.55,-46.79,-56.13,-58.64
2022/08/02 01:44:13+0000,-36.18,-47.35,-32.50,-48.08,-56.04,-58.98
2022/08/02 01:45:05+0000,-36.52,-47.47,-31.58,-50.81,-55.97,-58.52
2022/08/02 01:45:58+0000,-36.86,-45.61,-32.70,-45.94,-56.38,-58.60
2022/08/02 01:46:50+0000,-36.90,-44.96,-31.55,-51.03,-56.14,-58.99
2022/08/02 01:47:42+0000,-37.47,-45.20,-32.10,-49.11,-55.78,-58.78
2022/08/02 01:48:34+0000,-36.29,-46.04,-32.64,-50.17,-56.00,-58.70
2022/08/02 01:49:26+0000,-37.07,-45.18,-32.33,-46.75,-56.24,-58.77
2022/08/02 01:50:18+0000,-36.06,-45.18,-32.38,-48.54,-55.86,-58.43
2022/08/02 01:51:17+0000,-37.44,-46.24,-31.65,-49.23,-56.12,-58.94
2022/08/02 01:52:09+0000,-36.90,-46.88,-31.94,-50.43,-56.26,-58.94
2022/08/02 01:53:01+0000,-36.66,-47.65,-32.43,-50.02,-55.48,-58.82
2022/08/02 01:53:54+0000,-37.13,-46.72,-32.07,-49.45,-56.29,-58.86
2022/08/02 01:54:46+0000,-36.81,-46.68,-32.09,-49.79,-56.01,-58.91
2022/08/02 01:55:38+0000,-36.78,-46.97,-32.29,-49.23,-55.83,-58.27
2022/08/02 01:56:30+0000,-35.22,-46.18,-32.83,-49.96,-56.33,-58.62
2022/08/02 01:57:22+0000,-37.80,-47.79,-32.17,-50.02,-56.15,-58.70
2022/08/02 01:58:14+0000,-37.88,-45.67,-31.94,-49.80,-56.48,-58.42
2022/08/02 01:59:06+0000,-36.72,-45.77,-32.50,-50.57,-56.31,-58.43
2022/08/02 01:59:58+0000,-37.86,-46.14,-31.67,-49.90,-55.91,-58.60
2022/08/02 02:00:50+0000,-37.77,-46.15,-31.68,-50.92,-55.32,-58.77
2022/08/02 02:01:51+0000,-35.45,-45.60,-31.75,-49.55,-56.43,-58.76
2022/08/02 02:02:43+0000,-36.62,-46.27,-31.85,-49.27,-56.03,-58.56
2022/08/02 02:03:35+0000,-36.42,-45.97,-32.21,-50.01,-56.23,-58.88
2022/08/02 02:04:27+0000,-37.47,-45.29,-32.44,-48.87,-55.53,-58.42
2022/08/02 02:05:19+0000,-37.40,-46.75,-32.45,-50.27,-56.65,-58.89
2022/08/02 02:06:11+0000,-36.31,-45.77,-32.17,-49.85,-56.08,-59.15
2022/08/02 02:07:03+0000,-37.81,-46.38,-32.49,-50.13,-56.01,-59.12
2022/08/02 02:07:55+0000,-36.43,-45.57,-31.84,-49.83,-56.08,-58.64
2022/08/02 02:08:47+0000,-36.37,-46.29,-32.27,-49.38,-55.84,-58.05
2022/08/02 02:09:39+0000,-36.47,-45.40,-32.27,-49.12,-55.82,-58.90
2022/08/02 02:10:31+0000,-36.50,-47.03,-31.35,-48.27,-56.04,-58.57
2022/08/02 02:11:32+0000,-36.49,-45.41,-31.74,-49.17,-55.91,-58.90
2022/08/02 02:12:24+0000,-37.57,-46.31,-31.77,-48.38,-56.23,-58.57
2022/08/02 02:13:16+0000,-37.33,-45.43,-32.36,-49.77,-55.91,-58.78
2022/08/02 02:14:08+0000,-36.33,-45.83,-31.94,-50.24,-55.54,-58.69
2022/08/02 02:15:00+0000,-37.13,-45.58,-31.82,-48.62,-56.32,-58.58
2022/08/02 02:15:52+0000,-35.59,-45.18,-32.28,-49.32,-55.33,-59.29
2022/08/02 02:16:44+0000,-37.13,-45.86,-32.49,-50.02,-56.16,-58.44
2022/08/02 02:17:36+0000,-37.50,-45.11,-31.80,-48.95,-55.03,-58.88
2022/08/02 02:18:28+0000,-36.64,-46.62,-31.65,-48.01,-55.86,-59.02
2022/08/02 02:19:20+0000,-36.31,-46.90,-31.75,-49.64,-55.16,-58.60
2022/08/02 02:20:12+0000,-36.20,-46.02,-32.39,-50.33,-55.77,-58.61
2022/08/02 02:21:12+0000,-36.37,-46.41,-32.30,-49.91,-55.88,-58.68
2022/08/02 02:22:04+0000,-36.95,-47.01,-32.26,-50.55,-55.94,-59.00
2022/08/02 02:22:56+0000,-35.75,-45.37,-32.58,-49.32,-55.73,-58.39
2022/08/02 02:23:48+0000,-36.33,-45.00,-32.27,-50.59,-56.17,-58.36
2022/08/02 02:24:40+0000,-36.47,-45.33,-32.32,-49.17,-55.69,-58.82
2022/08/02 02:25:32+0000,-36.75,-45.49,-32.24,-49.94,-55.38,-58.74
2022/08/02 02:26:24+0000,-36.90,-46.94,-33.33,-49.78,-55.61,-58.68
2022/08/02 02:27:16+0000,-36.25,-44.77,-32.07,-49.21,-55.11,-58.56
2022/08/02 02:28:09+0000,-35.89,-45.33,-32.60,-48.89,-55.84,-58.77
2022/08/02 02:29:01+0000,-36.22,-45.55,-31.75,-49.57,-56.05,-58.60
2022/08/02 02:29:53+0000,-35.10,-36.84,-32.48,-48.00,-55.81,-58.42
2022/08/02 02:30:45+0000,-37.32,-36.99,-33.17,-48.16,-55.63,-58.71
2022/08/02 02:31:44+0000,-35.97,-36.94,-32.73,-49.02,-55.39,-58.60
2022/08/02 02:32:36+0000,-36.76,-39.31,-32.62,-48.60,-54.97,-58.19
2022/08/02 02:33:28+0000,-35.92,-39.48,-32.34,-49.20,-55.69,-58.37
2022/08/02 02:34:20+0000,-36.05,-38.00,-32.31,-49.76,-56.33,-58.80
2022/08/02 02:35:12+0000,-36.68,-38.32,-32.11,-47.95,-56.05,-58.15
2022/08/02 02:36:04+0000,-36.20,-39.45,-32.37,-49.63,-55.18,-59.15
2022/08/02 02:36:56+0000,-36.90,-39.21,-32.27,-48.09,-55.35,-58.39
2022/08/02 02:37:48+0000,-36.23,-40.51,-31.71,-49.30,-56.14,-58.93
2022/08/02 02:38:41+0000,-36.86,-39.99,-32.52,-46.14,-55.51,-58.72
2022/08/02 02:39:33+0000,-36.12,-38.49,-32.56,-48.79,-55.27,-58.74
2022/08/02 02:40:25+0000,-36.75,-38.08,-31.84,-48.53,-55.34,-58.08
2022/08/02 02:41:24+0000,-36.46,-39.08,-31.92,-48.97,-56.61,-58.15
2022/08/02 02:42:16+0000,-37.30,-38.78,-33.17,-48.54,-56.04,-58.80
2022/08/02 02:43:08+0000,-36.30,-37.48,-32.96,-45.81,-55.16,-58.48
2022/08/02 02:44:00+0000,-35.48,-39.45,-32.24,-48.08,-55.97,-57.95
2022/08/02 02:44:52+0000,-34.57,-38.41,-32.43,-49.07,-56.60,-59.32
2022/08/02 02:45:44+0000,-33.89,-37.84,-32.63,-45.89,-56.37,-58.01
2022/08/02 02:46:36+0000,-36.81,-40.59,-31.94,-46.26,-56.66,-59.15
2022/08/02 02:47:28+0000,-37.07,-39.02,-32.19,-48.59,-55.20,-58.58
2022/08/02 02:48:20+0000,-36.14,-38.85,-32.46,-48.66,-55.53,-58.66
2022/08/02 02:49:12+0000,-35.97,-38.09,-32.77,-45.64,-56.77,-58.13
2022/08/02 02:50:04+0000,-35.89,-38.40,-32.67,-48.61,-57.11,-58.84
2022/08/02 02:51:04+0000,-36.15,-38.70,-32.48,-49.54,-57.01,-58.52
2022/08/02 02:51:56+0000,-35.61,-40.11,-32.13,-48.24,-56.87,-59.23
2022/08/02 02:52:48+0000,-36.89,-40.05,-32.91,-46.08,-56.73,-58.61
2022/08/02 02:53:40+0000,-36.49,-39.24,-32.87,-45.55,-56.67,-58.03
2022/08/02 02:54:32+0000,-36.29,-38.12,-32.16,-49.08,-57.21,-58.39
2022/08/02 02:55:24+0000,-36.41,-38.76,-32.64,-48.83,-57.09,-58.18
2022/08/02 02:56:16+0000,-36.26,-37.87,-32.92,-46.20,-57.72,-58.69
2022/08/02 02:57:08+0000,-38.02,-41.03,-32.51,-45.58,-57.17,-58.93
2022/08/02 02:58:00+0000,-35.85,-38.16,-32.69,-49.31,-57.39,-58.76
2022/08/02 02:58:52+0000,-35.93,-41.31,-32.77,-49.39,-57.37,-58.59
2022/08/02 02:59:44+0000,-35.82,-38.87,-32.42,-48.99,-57.24,-58.46
2022/08/02 03:00:36+0000,-36.11,-40.30,-33.12,-49.06,-57.40,-58.45
2022/08/02 03:01:36+0000,-35.46,-41.12,-32.53,-48.65,-56.93,-58.34
2022/08/02 03:02:28+0000,-37.22,-40.07,-32.24,-46.23,-56.61,-58.65
2022/08/02 03:03:20+0000,-36.32,-39.55,-32.72,-47.08,-56.90,-58.15
2022/08/02 03:04:12+0000,-35.76,-39.37,-32.75,-49.62,-57.19,-58.64
2022/08/02 03:05:04+0000,-34.22,-39.27,-31.63,-48.98,-57.42,-58.57
2022/08/02 03:05:56+0000,-36.17,-41.12,-32.18,-46.54,-56.85,-58.29
2022/08/02 03:06:49+0000,-35.92,-37.85,-32.92,-49.74,-56.74,-58.66
2022/08/02 03:07:41+0000,-36.13,-40.14,-31.74,-49.48,-56.92,-57.73
2022/08/02 03:08:33+0000,-36.19,-39.04,-32.63,-50.64,-57.25,-58.57
2022/08/02 03:09:25+0000,-36.02,-42.23,-32.61,-46.95,-57.09,-58.58
2022/08/02 03:10:17+0000,-35.97,-41.33,-32.60,-49.78,-56.73,-58.53
2022/08/02 03:11:16+0000,-35.91,-39.71,-32.44,-49.76,-57.08,-58.28
2022/08/02 03:12:08+0000,-36.14,-40.08,-32.62,-49.25,-57.35,-58.62
2022/08/02 03:13:00+0000,-35.00,-39.96,-31.77,-46.83,-56.56,-58.50
2022/08/02 03:13:52+0000,-35.09,-41.03,-33.05,-47.03,-56.71,-58.48
2022/08/02 03:14:44+0000,-36.00,-41.47,-31.28,-49.92,-56.95,-58.28
2022/08/02 03:15:36+0000,-35.48,-41.94,-32.52,-49.20,-56.95,-58.43
2022/08/02 03:16:28+0000,-36.35,-41.53,-31.86,-49.31,-56.79,-58.51
2022/08/02 03:17:20+0000,-35.55,-41.03,-32.26,-47.83,-56.63,-58.53
2022/08/02 03:18:12+0000,-36.32,-42.45,-31.92,-48.83,-56.93,-58.88
2022/08/02 03:19:04+0000,-36.59,-41.18,-32.38,-50.48,-57.14,-58.71
2022/08/02 03:19:57+0000,-36.54,-41.57,-32.07,-47.10,-57.01,-58.37
2022/08/02 03:20:49+0000,-35.81,-42.50,-32.68,-49.59,-56.95,-58.66
2022/08/02 03:21:48+0000,-35.13,-42.33,-32.50,-50.03,-57.26,-58.57
2022/08/02 03:22:40+0000,-35.82,-43.50,-32.23,-48.91,-56.53,-58.59
2022/08/02 03:23:32+0000,-32.05,-43.39,-31.87,-50.29,-57.93,-58.74
2022/08/02 03:24:25+0000,-36.56,-41.22,-32.35,-46.61,-56.42,-58.34
2022/08/02 03:25:17+0000,-35.64,-41.38,-31.73,-48.98,-56.93,-58.38
2022/08/02 03:26:09+0000,-35.46,-42.26,-32.44,-48.87,-57.24,-58.43
2022/08/02 03:27:01+0000,-36.40,-41.27,-31.59,-49.12,-57.56,-58.38
2022/08/02 03:27:53+0000,-35.17,-42.54,-32.24,-50.36,-57.13,-58.10
2022/08/02 03:28:45+0000,-35.93,-41.40,-32.13,-49.51,-57.00,-58.22
2022/08/02 03:29:37+0000,-36.67,-41.38,-31.93,-50.19,-57.82,-58.35
2022/08/02 03:30:29+0000,-35.92,-40.39,-32.50,-49.36,-56.88,-58.70
2022/08/02 03:31:28+0000,-34.35,-40.74,-32.02,-49.52,-56.73,-59.07
2022/08/02 03:32:20+0000,-35.12,-42.26,-32.24,-49.93,-57.27,-58.33
2022/08/02 03:33:13+0000,-35.81,-41.21,-32.17,-48.91,-56.67,-58.94
2022/08/02 03:34:05+0000,-35.15,-42.86,-31.80,-50.08,-57.15,-58.67
2022/08/02 03:34:57+0000,-36.65,-42.60,-32.39,-49.09,-56.45,-58.27
2022/08/02 03:35:49+0000,-35.37,-43.24,-32.35,-50.15,-57.17,-58.18
2022/08/02 03:36:41+0000,-35.09,-43.99,-31.46,-48.66,-57.06,-57.84
2022/08/02 03:37:33+0000,-32.17,-41.93,-32.67,-49.19,-57.00,-58.31
2022/08/02 03:38:25+0000,-35.61,-40.73,-31.85,-49.47,-56.82,-58.21
2022/08/02 03:39:17+0000,-34.76,-41.98,-32.14,-48.95,-56.66,-58.32
2022/08/02 03:40:09+0000,-34.98,-41.70,-31.67,-49.15,-57.43,-58.38
2022/08/02 03:41:08+0000,-36.13,-42.30,-32.25,-48.82,-56.62,-58.01
2022/08/02 03:42:00+0000,-36.86,-41.86,-31.82,-49.38,-56.81,-58.03
2022/08/02 03:42:52+0000,-36.50,-42.02,-31.97,-49.73,-57.41,-58.27
2022/08/02 03:43:44+0000,-35.80,-41.28,-32.67,-48.89,-56.91,-58.81
2022/08/02 03:44:36+0000,-35.65,-42.23,-32.45,-48.84,-56.84,-58.53
2022/08/02 03:45:28+0000,-35.43,-42.08,-32.44,-49.94,-57.25,-58.66
2022/08/02 03:46:20+0000,-35.37,-42.27,-32.07,-50.56,-57.23,-58.05
2022/08/02 03:47:13+0000,-35.78,-41.62,-32.44,-48.51,-57.15,-58.32
2022/08/02 03:48:05+0000,-35.04,-41.90,-31.61,-50.10,-57.46,-58.53
2022/08/02 03:48:57+0000,-35.25,-41.62,-32.27,-49.04,-57.18,-58.68
2022/08/02 03:49:49+0000,-35.48,-41.97,-32.26,-50.40,-57.06,-58.49
2022/08/02 03:50:41+0000,-35.10,-43.12,-32.08,-48.09,-57.56,-58.41
2022/08/02 03:51:40+0000,-36.13,-41.50,-31.84,-48.73,-57.18,-57.97
2022/08/02 03:52:32+0000,-35.24,-41.51,-31.47,-48.92,-56.84,-58.44
2022/08/02 03:53:24+0000,-35.79,-41.41,-31.89,-50.01,-56.79,-58.49
2022/08/02 03:54:16+0000,-36.49,-41.26,-31.92,-48.49,-57.56,-58.64
2022/08/02 03:55:08+0000,-35.88,-43.11,-31.73,-48.87,-57.56,-58.25
2022/08/02 03:56:00+0000,-36.43,-42.11,-31.92,-49.38,-57.34,-58.49
2022/08/02 03:56:52+0000,-35.95,-42.58,-31.88,-49.56,-57.07,-58.21
2022/08/02 03:57:44+0000,-36.40,-42.92,-32.31,-48.84,-57.11,-58.38
2022/08/02 03:58:36+0000,-35.56,-44.07,-32.10,-50.06,-57.07,-58.26
2022/08/02 03:59:28+0000,-36.13,-41.73,-31.81,-49.45,-57.35,-58.05
2022/08/02 04:00:21+0000,-36.36,-41.11,-32.28,-50.05,-57.49,-58.16
2022/08/02 04:01:21+0000,-36.46,-41.70,-32.08,-49.95,-57.34,-57.91
2022/08/02 04:02:13+0000,-34.80,-41.54,-31.75,-48.73,-57.77,-58.68
2022/08/02 04:03:05+0000,-35.55,-42.71,-31.73,-50.08,-57.63,-58.02
2022/08/02 04:03:57+0000,-35.21,-42.93,-32.15,-48.93,-56.69,-57.93
2022/08/02 04:04:49+0000,-35.78,-42.62,-31.89,-50.26,-57.45,-58.38
2022/08/02 04:05:41+0000,-36.41,-41.28,-31.62,-48.92,-57.41,-58.53
2022/08/02 04:06:33+0000,-35.17,-41.67,-32.16,-50.14,-57.21,-58.07
2022/08/02 04:07:25+0000,-36.59,-42.69,-31.77,-49.04,-56.86,-58.15
2022/08/02 04:08:17+0000,-36.66,-42.47,-32.16,-49.19,-57.48,-58.23
2022/08/02 04:09:09+0000,-36.12,-41.08,-32.12,-49.23,-57.22,-58.46
2022/08/02 04:10:01+0000,-34.86,-43.39,-32.14,-48.59,-57.29,-58.06
2022/08/02 04:11:00+0000,-35.72,-42.16,-32.28,-49.52,-56.96,-58.51
2022/08/02 04:11:53+0000,-34.81,-41.11,-32.39,-49.21,-56.75,-58.49
2022/08/02 04:12:45+0000,-35.12,-42.99,-31.62,-49.24,-56.99,-58.37
2022/08/02 04:13:37+0000,-35.27,-42.44,-31.99,-48.73,-56.95,-58.51
2022/08/02 04:14:29+0000,-35.79,-41.89,-32.57,-48.45,-57.49,-58.12
2022/08/02 04:15:21+0000,-35.72,-42.22,-32.43,-49.34,-56.90,-59.03
2022/08/02 04:16:13+0000,-34.71,-41.89,-32.15,-49.13,-57.13,-58.10
2022/08/02 04:17:05+0000,-36.73,-42.30,-31.80,-49.69,-57.29,-58.17
2022/08/02 04:17:57+0000,-36.22,-42.43,-32.64,-49.67,-57.13,-57.90
2022/08/02 04:18:49+0000,-34.69,-42.40,-32.20,-50.23,-56.73,-57.94
2022/08/02 04:19:41+0000,-36.28,-41.38,-32.00,-48.97,-57.12,-58.38
2022/08/02 04:20:33+0000,-35.26,-42.58,-32.22,-49.63,-56.49,-57.87
2022/08/02 04:21:32+0000,-35.25,-42.00,-32.19,-48.91,-56.97,-58.45
2022/08/02 04:22:24+0000,-37.26,-41.68,-32.01,-49.39,-56.94,-58.07
2022/08/02 04:23:16+0000,-35.00,-42.83,-32.09,-49.14,-56.64,-57.82
2022/08/02 04:24:08+0000,-35.45,-41.97,-32.10,-49.50,-56.74,-57.81
2022/08/02 04:25:00+0000,-36.40,-42.41,-32.86,-49.07,-57.36,-57.93
2022/08/02 04:25:52+0000,-35.24,-43.18,-32.49,-50.03,-57.14,-57.88
2022/08/02 04:26:44+0000,-35.73,-41.62,-31.96,-49.47,-56.64,-57.90
2022/08/02 04:27:36+0000,-36.21,-42.03,-31.99,-49.75,-57.55,-58.00
2022/08/02 04:28:28+0000,-35.48,-41.00,-32.08,-49.11,-57.26,-58.87
2022/08/02 04:29:20+0000,-36.42,-41.66,-32.09,-49.12,-56.51,-58.06
2022/08/02 04:30:12+0000,-35.63,-41.04,-31.83,-49.23,-56.39,-58.50
2022/08/02 04:31:12+0000,-35.75,-41.66,-32.30,-49.29,-56.84,-58.19
2022/08/02 04:32:04+0000,-34.82,-42.47,-32.59,-50.18,-56.90,-57.68
2022/08/02 04:32:56+0000,-25.89,-42.01,-32.20,-49.26,-56.68,-58.34
2022/08/02 04:33:48+0000,-35.71,-43.89,-32.34,-50.21,-55.97,-57.40
2022/08/02 04:34:40+0000,-35.21,-42.42,-32.57,-48.60,-55.80,-58.12
2022/08/02 04:35:32+0000,-34.51,-42.78,-32.14,-50.22,-56.70,-58.02
2022/08/02 04:36:24+0000,-35.73,-42.78,-31.82,-50.59,-56.50,-58.47
2022/08/02 04:37:16+0000,-36.30,-43.01,-32.43,-49.76,-56.12,-58.23
2022/08/02 04:38:08+0000,-35.50,-43.68,-32.54,-48.85,-56.11,-58.50
2022/08/02 04:39:01+0000,-36.58,-41.99,-32.86,-50.53,-55.86,-58.58
2022/08/02 04:39:53+0000,-34.32,-41.47,-32.51,-49.55,-55.63,-58.18
2022/08/02 04:40:45+0000,-36.07,-43.34,-32.36,-49.28,-56.85,-58.39
2022/08/02 04:41:44+0000,-35.21,-43.24,-32.12,-48.88,-56.53,-58.56
2022/08/02 04:42:36+0000,-34.99,-41.40,-32.09,-49.71,-56.94,-58.30
2022/08/02 04:43:28+0000,-34.85,-42.98,-32.37,-49.40,-56.60,-58.66
2022/08/02 04:44:20+0000,-35.33,-42.28,-31.61,-50.54,-56.75,-58.06
2022/08/02 04:45:12+0000,-35.26,-43.66,-33.09,-49.12,-56.20,-58.80
2022/08/02 04:46:04+0000,-32.75,-42.98,-32.03,-49.65,-56.54,-58.02
2022/08/02 04:46:56+0000,-32.62,-41.33,-32.15,-49.93,-56.47,-58.55